Wind_Speed
10 9 8 7 6 5 4 3 3 2 2 2 3 3 3 2 1 1 2 2 1 2 2 2 2 2 3 3 3 4 5 5 5 5 5 5 5 5 5 5 5 5 5
11 10 10 9 8 6 5 4 4 3 3 3 3 3 2 1 1 1 1 1 1 1 2 2 2 2 2 3 3 3 4 5 5 5 5 5 5 5 5 5 5 5 6
12 11 11 11 9 8 7 5 5 4 4 3 3 3 3 2 1 1 1 1 1 2 2 2 2 2 2 3 3 2 3 4 5 5 5 5 5 5 5 5 5 6 6
13 12 13 12 11 9 8 7 6 5 5 4 4 3 3 3 2 1 2 2 2 2 2 2 2 2 2 2 2 2 3 3 4 5 5 4 4 4 5 5 5 6 6
14 14 14 14 13 11 9 8 7 7 6 6 5 4 3 3 3 2 2 2 2 2 2 2 2 2 2 1 2 2 3 3 3 4 5 4 5 5 5 6 6 6 6
16 15 15 15 14 12 11 10 9 8 7 7 6 5 4 4 4 3 2 2 2 3 3 2 2 2 2 2 2 2 3 3 3 4 4 4 5 5 6 6 7 7 6
17 15 15 15 15 14 12 12 10 10 9 8 6 5 5 5 5 4 4 4 3 4 4 4 3 3 3 3 3 3 3 3 3 3 4 4 5 5 6 7 7 7 7
18 16 15 15 15 15 14 12 12 11 10 9 8 7 6 6 5 5 5 5 5 4 4 4 5 4 4 4 4 4 4 4 4 5 5 5 6 6 7 8 8 8 8
20 18 17 16 16 16 15 14 14 13 12 11 10 8 7 7 7 7 6 6 6 6 6 6 6 5 5 5 5 5 5 5 5 6 6 7 7 8 8 9 9 10 11
20 20 19 18 17 17 16 16 15 15 13 12 11 10 9 9 8 8 8 8 8 7 7 7 7 7 6 6 6 6 6 7 8 8 9 9 10 10 10 10 11 12 13
20 20 20 19 18 17 17 17 16 16 15 14 13 12 12 11 10 10 10 10 10 9 9 9 9 9 9 9 8 8 9 9 10 10 11 12 12 12 12 13 13 14 14
19 19 19 19 19 18 18 18 18 17 17 16 16 15 14 13 13 12 12 12 12 11 11 11 11 11 11 11 11 11 11 12 12 13 14 14 14 14 15 15 15 16 16
19 19 19 19 20 20 19 19 19 19 18 18 17 17 16 16 15 14 14 14 14 14 13 14 13 14 14 14 14 14 14 15 15 15 16 16 16 17 17 17 18 19 19
19 20 20 20 20 21 20 20 20 20 20 19 19 19 18 18 17 17 17 16 16 16 16 16 16 16 16 17 17 18 18 18 18 18 18 19 19 20 20 20 21 21 22
20 20 20 20 21 21 22 21 21 21 21 21 21 20 20 20 20 20 19 19 18 18 18 18 18 19 19 20 20 21 21 21 21 21 22 22 22 23 23 24 24 24 24
20 20 20 20 21 21 22 22 21 22 22 21 22 22 22 22 21 21 21 21 22 22 21 21 21 22 22 23 23 23 23 24 24 24 25 25 25 26 26 26 27 27 27
18 19 19 21 21 22 23 22 22 22 23 23 23 23 23 24 23 23 23 24 24 24 25 24 24 24 25 25 25 26 26 27 27 28 28 28 28 28 29 29 29 30 30
18 18 19 20 21 22 22 22 23 23 24 24 24 24 24 26 26 25 26 26 26 26 26 26 26 27 27 27 28 28 29 30 31 31 31 32 32 32 32 33 33 33 33
18 18 19 19 20 21 21 22 23 23 24 24 25 25 26 26 26 27 27 27 28 29 28 28 28 29 29 29 30 31 32 32 33 34 34 35 35 35 35 36 36 36 37
17 17 18 19 20 20 21 22 23 24 24 24 25 26 26 27 28 27 27 28 29 29 30 30 30 31 31 32 33 33 34 35 35 36 36 37 38 38 38 39 39 39 40
17 18 19 19 20 20 21 22 23 24 24 25 26 26 26 27 28 28 29 30 30 32 32 32 32 33 33 34 35 36 37 37 37 39 39 40 41 41 41 42 42 43 43
18 19 20 20 20 21 21 22 23 23 24 26 27 27 28 28 29 30 30 31 32 32 32 33 34 34 34 36 37 37 38 39 40 41 42 42 43 44 44 45 45 46 47
17 19 21 22 22 21 21 22 23 23 24 25 26 27 27 28 29 30 30 31 33 34 35 35 35 36 38 39 39 39 40 41 42 43 44 44 45 45 46 47 47 48 49
15 17 19 20 21 21 22 22 22 23 25 25 26 27 27 28 29 31 32 33 34 35 36 36 37 38 39 40 41 42 43 44 45 46 46 46 47 48 49 50 51 52 52
15 17 19 20 21 21 22 23 23 24 25 25 26 27 29 30 30 31 32 33 35 36 36 37 39 40 41 42 43 45 46 47 47 48 49 50 51 51 52 53 54 55 55
16 17 18 20 22 22 22 22 23 24 24 25 26 28 30 31 32 32 34 35 36 36 38 39 41 42 43 45 46 47 48 49 50 51 52 53 54 54 55 55 56 58 59
Wind_Direction
213 209 207 205 203 198 195 193 185 185 183 161 164 167 165 152 161 198 207 222 234 245 258 257 255 256 260 245 234 230 232 241 246 247 246 248 248 248 251 248 248 255 259
221 217 210 210 211 211 211 208 205 199 195 180 174 176 171 157 146 191 204 215 246 265 261 254 260 264 266 257 259 244 237 240 246 247 247 249 251 248 254 256 258 261 264
225 222 213 212 215 217 217 216 210 204 201 190 184 185 188 186 182 191 220 229 248 269 265 259 265 267 265 268 270 257 252 249 251 251 247 248 253 255 259 260 264 268 272
228 226 216 214 214 216 217 220 218 211 207 201 198 195 193 200 194 207 233 246 251 254 253 253 264 267 272 272 266 270 267 270 258 248 243 244 253 261 266 267 267 272 277
226 227 221 216 215 216 217 221 224 219 213 209 206 202 203 205 201 209 227 244 242 242 243 242 255 260 275 285 286 287 301 287 273 257 247 252 259 262 268 270 272 274 277
228 226 223 219 218 218 220 221 224 223 220 215 212 212 218 220 220 223 233 241 246 249 246 246 258 262 271 277 290 299 302 301 290 275 257 264 274 273 271 274 274 274 277
229 225 223 220 220 219 220 223 225 221 221 218 219 222 227 232 235 239 244 250 252 254 253 251 254 266 275 274 282 294 296 296 294 290 279 279 289 287 277 277 279 279 283
225 226 223 221 220 219 221 222 222 222 224 225 227 229 232 237 241 248 255 255 256 258 255 256 258 267 274 279 286 285 287 291 295 294 291 292 294 298 292 287 281 282 284
227 226 221 218 219 219 223 223 224 226 226 228 229 232 238 241 247 254 259 259 261 262 263 263 264 268 273 278 281 286 283 289 295 295 295 296 297 300 299 296 293 290 288
226 225 222 221 223 223 224 225 226 226 228 231 232 234 239 241 247 254 258 257 259 261 263 263 265 265 271 276 282 285 287 290 293 291 292 294 293 294 294 294 294 292 289
227 226 226 224 224 224 224 226 227 228 228 231 235 238 240 243 248 251 255 257 257 260 262 264 265 264 268 272 277 282 289 292 294 293 292 293 293 292 292 292 292 291 290
227 228 229 226 226 227 227 229 229 230 231 233 237 241 244 245 249 251 254 256 258 260 261 263 265 267 269 271 274 280 286 289 291 292 292 291 291 291 291 291 290 290 290
229 229 230 228 228 229 230 232 233 233 235 236 238 242 246 247 250 252 255 257 260 261 261 263 264 266 269 271 274 278 282 285 287 289 290 290 290 290 289 289 289 289 288
233 232 230 231 231 230 232 235 237 237 237 238 241 244 247 248 251 253 256 259 260 262 262 264 265 266 267 271 274 277 279 282 284 285 287 288 289 289 288 287 288 288 287
231 230 232 233 234 234 234 236 239 239 239 240 243 245 247 250 252 254 256 258 260 261 262 265 267 268 269 271 274 276 279 280 281 282 284 285 286 287 286 286 286 286 286
230 229 232 233 234 235 235 236 239 241 241 242 244 247 249 250 252 254 256 258 260 262 263 265 267 269 271 273 275 277 279 280 281 281 282 283 284 285 285 285 285 285 285
231 232 234 236 237 237 237 239 242 243 242 244 248 250 251 251 253 255 256 259 261 263 264 267 269 271 273 274 276 278 279 280 281 281 282 283 284 284 284 284 284 284 284
235 234 234 235 236 237 238 240 242 245 245 247 249 252 253 253 254 256 258 261 263 265 266 268 270 271 273 275 278 280 281 281 281 281 282 282 283 283 283 283 283 282 282
235 235 235 235 235 237 241 245 246 247 249 250 251 253 255 255 256 259 261 262 264 265 267 269 270 271 273 275 277 279 281 281 282 283 283 284 284 284 285 285 284 282 281
236 235 236 237 238 242 246 249 250 251 252 253 254 254 256 258 259 259 262 265 267 267 267 269 271 271 273 275 277 279 280 282 283 283 283 284 284 284 284 284 283 283 282
241 238 239 241 243 246 250 254 254 253 254 255 256 255 256 258 259 260 263 265 267 268 269 271 272 273 274 276 278 280 281 282 282 284 284 285 285 284 284 283 283 283 282
245 243 243 244 247 248 251 255 256 256 257 259 259 258 260 261 261 262 264 265 268 270 271 272 274 275 276 277 279 281 281 282 283 284 284 285 285 285 285 285 285 284 283
246 244 243 244 247 250 253 255 255 258 260 262 261 262 262 262 263 265 266 268 269 270 272 274 276 276 277 278 279 280 282 283 284 284 284 284 285 285 285 285 285 285 285
248 248 247 246 248 250 254 258 259 262 263 264 264 263 263 264 264 267 270 271 272 273 274 275 275 277 278 279 280 281 282 283 283 284 285 285 286 286 286 285 286 286 286
256 253 251 250 251 254 258 262 265 268 266 266 265 265 266 267 267 269 271 273 274 275 276 277 276 278 278 280 281 282 284 284 284 285 285 286 286 286 286 286 286 287 286
262 262 262 257 257 259 261 261 264 266 267 268 269 269 270 270 270 273 275 277 276 277 278 279 279 280 280 281 282 283 284 285 285 285 286 286 287 287 287 287 287 286 286
Height
5899 5899 5900 5901 5901 5902 5902 5903 5903 5903 5903 5903 5903 5903 5904 5904 5904 5904 5904 5904 5904 5904 5904 5904 5904 5904 5904 5904 5903 5904 5904 5904 5904 5905 5905 5905 5905 5905 5905 5905 5906 5906 5906
5897 5898 5899 5900 5901 5901 5902 5902 5902 5902 5903 5903 5903 5903 5904 5904 5904 5904 5904 5904 5904 5904 5904 5904 5903 5903 5903 5903 5903 5903 5903 5903 5903 5904 5904 5904 5904 5904 5904 5904 5905 5905 5905
5895 5896 5897 5898 5899 5900 5901 5901 5902 5902 5902 5902 5903 5903 5903 5904 5904 5904 5904 5903 5903 5903 5903 5903 5903 5903 5903 5903 5902 5902 5902 5902 5903 5903 5903 5903 5903 5903 5903 5903 5903 5903 5903
5893 5894 5895 5896 5898 5899 5900 5900 5901 5901 5902 5902 5903 5903 5903 5903 5903 5903 5903 5903 5903 5903 5903 5903 5903 5903 5902 5902 5902 5902 5902 5902 5901 5902 5902 5902 5902 5902 5902 5902 5902 5902 5902
5891 5892 5893 5895 5896 5897 5898 5899 5900 5901 5901 5902 5902 5902 5903 5903 5903 5903 5903 5903 5903 5903 5903 5902 5902 5902 5902 5902 5902 5901 5901 5901 5901 5901 5901 5901 5901 5901 5901 5901 5901 5900 5900
5888 5889 5891 5892 5894 5895 5897 5898 5899 5900 5900 5901 5901 5902 5902 5903 5903 5903 5903 5903 5902 5902 5902 5902 5902 5901 5901 5901 5901 5901 5900 5900 5900 5900 5900 5900 5900 5900 5900 5899 5899 5899 5899
5885 5886 5888 5890 5892 5893 5895 5896 5897 5898 5899 5900 5901 5901 5901 5902 5902 5902 5902 5902 5902 5902 5901 5901 5901 5901 5901 5901 5900 5900 5900 5900 5899 5899 5899 5899 5899 5898 5898 5898 5897 5897 5897
5882 5884 5886 5887 5889 5891 5893 5894 5895 5896 5898 5899 5899 5900 5900 5901 5901 5901 5901 5902 5901 5901 5901 5901 5901 5900 5900 5900 5900 5900 5899 5899 5899 5898 5898 5898 5897 5897 5896 5896 5896 5896 5895
5879 5881 5883 5885 5887 5889 5890 5892 5893 5894 5896 5897 5898 5899 5899 5900 5900 5900 5900 5900 5900 5900 5900 5900 5900 5900 5899 5899 5899 5899 5898 5898 5898 5897 5897 5896 5896 5896 5895 5894 5894 5894 5893
5875 5877 5879 5882 5884 5886 5888 5889 5891 5892 5894 5895 5896 5897 5898 5898 5898 5899 5899 5899 5899 5899 5899 5899 5899 5899 5898 5898 5898 5897 5897 5897 5896 5896 5895 5895 5894 5894 5893 5892 5892 5891 5891
5871 5874 5876 5878 5881 5883 5885 5887 5888 5890 5891 5893 5894 5895 5895 5896 5896 5897 5897 5897 5897 5897 5897 5897 5897 5897 5897 5896 5896 5896 5896 5895 5894 5894 5893 5893 5892 5891 5890 5890 5889 5888 5887
5867 5870 5872 5875 5877 5880 5882 5884 5885 5887 5889 5890 5891 5892 5893 5893 5894 5894 5895 5895 5895 5895 5895 5895 5895 5895 5895 5894 5894 5894 5893 5893 5892 5891 5891 5890 5889 5888 5887 5886 5886 5885 5884
5864 5866 5869 5871 5874 5876 5879 5880 5882 5884 5885 5887 5888 5889 5890 5890 5891 5891 5892 5892 5892 5892 5892 5892 5892 5892 5892 5892 5891 5891 5891 5890 5889 5888 5887 5886 5885 5885 5884 5882 5882 5881 5880
5860 5862 5865 5867 5869 5872 5874 5877 5878 5880 5881 5883 5884 5885 5886 5887 5887 5888 5889 5889 5889 5889 5889 5889 5889 5889 5889 5888 5888 5887 5887 5886 5885 5884 5883 5882 5881 5880 5879 5878 5877 5876 5875
5856 5858 5861 5863 5865 5868 5870 5872 5874 5876 5877 5879 5880 5881 5882 5883 5883 5884 5884 5885 5886 5885 5885 5885 5885 5884 5884 5884 5883 5883 5882 5881 5880 5880 5878 5877 5876 5875 5874 5873 5871 5870 5869
5852 5854 5856 5859 5861 5863 5865 5867 5869 5871 5873 5874 5875 5876 5877 5878 5878 5879 5880 5880 5880 5881 5880 5880 5880 5879 5879 5878 5878 5877 5877 5876 5875 5874 5873 5871 5870 5869 5867 5866 5865 5864 5862
5848 5850 5852 5854 5856 5859 5861 5863 5865 5866 5868 5869 5870 5871 5872 5873 5873 5874 5874 5875 5875 5875 5875 5875 5874 5874 5873 5872 5871 5870 5870 5869 5868 5867 5866 5865 5863 5862 5860 5859 5858 5856 5855
5844 5846 5848 5850 5852 5854 5856 5858 5859 5861 5862 5864 5865 5866 5867 5867 5868 5868 5869 5869 5869 5869 5869 5868 5868 5867 5866 5865 5864 5863 5862 5861 5860 5859 5858 5857 5855 5854 5852 5851 5849 5848 5847
5840 5842 5844 5846 5848 5850 5852 5853 5854 5856 5857 5858 5859 5860 5860 5861 5861 5862 5862 5862 5862 5862 5862 5861 5861 5860 5859 5858 5857 5856 5855 5853 5852 5851 5850 5848 5847 5845 5843 5842 5840 5839 5837
5837 5839 5840 5842 5844 5846 5847 5848 5849 5850 5851 5852 5852 5853 5854 5854 5855 5855 5856 5856 5855 5855 5855 5854 5853 5852 5852 5851 5849 5848 5847 5845 5844 5842 5840 5839 5837 5835 5834 5832 5830 5828 5826
5834 5835 5837 5839 5840 5841 5843 5844 5844 5845 5845 5845 5846 5846 5847 5848 5848 5849 5849 5848 5848 5848 5847 5846 5845 5845 5844 5842 5841 5839 5838 5836 5834 5832 5830 5828 5826 5825 5822 5820 5819 5816 5814
5830 5831 5832 5834 5835 5836 5838 5838 5839 5839 5839 5839 5839 5840 5840 5841 5841 5841 5841 5841 5841 5840 5840 5839 5838 5836 5835 5834 5832 5830 5828 5827 5825 5823 5820 5818 5815 5813 5811 5808 5807 5804 5802
5825 5826 5827 5829 5830 5832 5832 5833 5833 5833 5833 5833 5833 5833 5834 5834 5834 5834 5834 5833 5833 5832 5831 5830 5829 5828 5826 5824 5822 5821 5819 5816 5814 5812 5809 5807 5804 5802 5799 5796 5794 5791 5788
5820 5821 5823 5823 5825 5826 5827 5827 5828 5827 5827 5826 5826 5826 5826 5827 5826 5826 5826 5825 5824 5823 5822 5821 5820 5818 5816 5814 5812 5810 5808 5806 5803 5800 5797 5795 5792 5789 5786 5783 5780 5777 5774
5817 5817 5818 5819 5820 5820 5821 5822 5822 5821 5821 5820 5819 5819 5819 5819 5818 5818 5817 5816 5815 5814 5813 5811 5809 5807 5805 5803 5801 5799 5796 5794 5791 5788 5785 5782 5778 5775 5772 5768 5765 5762 5758
5814 5814 5814 5814 5814 5815 5815 5815 5815 5815 5814 5813 5813 5812 5811 5810 5810 5809 5808 5807 5806 5804 5803 5801 5798 5796 5794 5792 5789 5786 5783 5781 5777 5775 5771 5768 5764 5760 5757 5754 5749 5744 5740